Location: Lafig�re
(44.4503°N, 4.0357°E)
Time: 16:31:13
(UTC+00:00)

USA 238 DEB - Pass Details

Date: 24 September 2020
Orbit: 1006 x 1206 km, 63.4° (Epoch: 15 October)

Event Time Altitude Azimuth Distance (km) Brightness Sun altitude
Rises 18:45:27 0° 321° (NW) 3,954 7.5 -13.0°
Reaches altitude 10° 18:48:05 10° 321° (NW) 3,020 6.9 -13.4°
Maximum altitude 18:55:20 80° 236° (SW) 1,189 4.0 -14.7°
Drops below altitude 10° 19:02:51 10° 151° (SSE) 3,121 5.7 -16.0°
Enters shadow 19:03:16 - 150° (SSE) 3,266 5.8 -16.1°
